User: anonymous   Login
Location: Unspecified
(0.0000°N, 0.0000°E)
Time: 03:02:55
(UTC+00:00)
Language:

ETS 8 - Orbit

View from above orbital plane
View from above orbital plane
View from above satellite
View from above satellite

Ground track
Ground track

The orbit data is extracted from the following two-line orbital elements,

1 29656U 06059A   17022.80980438 -.00000149 +00000-0 +00000-0 0  9995
2 29656 005.3375 060.1609 0011790 224.0634 135.8558 00.99006459037056
Epoch (UTC): 22 January 2017 19:26:07
Eccentricity: 0.0011790
inclination: 5.3375°
perigee height: 36094 km
apogee height: 36195 km
right ascension of ascending node: 60.1609°
argument of perigee: 224.0634°
revolutions per day: 0.99006459
mean anomaly at epoch: 135.8558°
orbit number at epoch: 3705

The dashed part of the orbit path shows where the satellite is in the earth's shadow,  

DLR